N1IJV-10 Weather Reports


time (UTC)temp
F
wind
direction
speed
knots
gust
knots
rain 1hr
in
rain 24hr
in
rain mn
in
humidity
%
barometer
mb
20221203064336 50 180 2.6 5.2 0.00 0.00 0.00 88 1005.4
20221203063836 50 254 2.6 6.1 0.00 0.00 0.00 89 1005.4
20221203063334 50 21 3.5 9.6 0.00 0.00 0.00 89 1005.2
20221203062833 50 44 1.7 6.1 0.00 0.00 0.00 89 1005.4
20221203062332 50 264 3.5 7.0 0.00 0.00 0.00 89 1005.1
20221203061831 50 202 4.3 7.0 0.00 0.00 0.00 89 1005.2
20221203061329 49 95 3.5 7.8 0.00 0.00 0.00 90 1005.3
20221203060828 49 231 2.6 7.0 0.00 0.00 0.00 89 1005.0
20221203060326 49 188 2.6 7.0 0.00 0.00 0.00 90 1005.4
20221203055824 49 262 4.3 8.7 0.00 0.00 0.00 90 1005.1
20221203055323 49 116 4.3 7.8 0.00 0.00 0.00 90 1005.2
20221203054820 49 237 6.1 9.6 0.00 0.00 0.00 89 1005.2
20221203054320 49 229 2.6 7.8 0.00 0.00 0.00 89 1005.1
20221203053818 49 340 1.7 6.1 0.00 0.00 0.00 88 1005.3
20221203053317 49 93 2.6 4.3 0.00 0.00 0.00 88 1005.1
20221203052816 49 109 1.7 7.8 0.00 0.00 0.00 88 1005.2
20221203052316 49 72 0.9 2.6 0.00 0.00 0.00 88 1004.9
20221203051814 49 288 2.6 4.3 0.00 0.00 0.00 88 1005.1
20221203051312 49 137 2.6 7.0 0.00 0.00 0.00 87 1004.9
20221203050810 49 145 2.6 4.3 0.00 0.00 0.00 87 1004.7
20221203050310 49 226 4.3 6.1 0.00 0.00 0.00 87 1005.1
20221203045810 49 246 2.6 7.0 0.00 0.00 0.00 87 1004.7
20221203045309 49 207 1.7 8.7 0.00 0.00 0.00 87 1004.7
20221203044809 49 107 2.6 5.2 0.00 0.00 0.00 87 1004.7
20221203044308 49 197 2.6 2.6 0.00 0.00 0.00 87 1004.8
20221203043807 49 351 3.5 9.6 0.00 0.00 0.00 87 1004.6
20221203043308 49 233 4.3 7.8 0.00 0.00 0.00 87 1004.4
20221203042806 49 108 1.7 5.2 0.00 0.00 0.00 87 1004.7
20221203042306 48 271 2.6 7.8 0.00 0.00 0.00 87 1004.9
20221203041802 48 130 6.1 7.8 0.00 0.00 0.00 87 1004.6
20221203041301 48 186 3.5 6.1 0.00 0.00 0.00 87 1004.7
20221203040800 48 125 2.6 6.1 0.00 0.00 0.00 87 1004.7
20221203040300 48 187 3.5 6.1 0.00 0.00 0.00 87 1004.7
20221203035759 48 173 4.3 7.8 0.00 0.00 0.00 87 1004.8
20221203035257 48 117 1.7 7.0 0.00 0.00 0.00 87 1004.4
20221203034757 48 119 0.9 5.2 0.00 0.00 0.00 87 1004.7
20221203034257 48 181 0.9 5.2 0.00 0.00 0.00 87 1004.7
20221203033753 48 183 5.2 7.8 0.00 0.00 0.00 86 1004.7
20221203033251 49 173 4.3 8.7 0.00 0.00 0.00 86 1004.8
20221203032749 49 221 7.0 11.3 0.00 0.00 0.00 85 1005.1
20221203032247 49 309 1.7 8.7 0.00 0.00 0.00 85 1004.8
20221203031746 49 298 3.5 7.8 0.00 0.00 0.00 85 1004.7
20221203031245 49 31 4.3 7.8 0.00 0.00 0.00 85 1004.7
20221203030743 49 186 4.3 8.7 0.00 0.00 0.00 85 1004.7
20221203030243 49 220 5.2 8.7 0.00 0.00 0.00 85 1004.5
20221203025742 49 199 3.5 7.0 0.00 0.00 0.00 83 1004.4
20221203025241 49 107 6.1 7.8 0.00 0.00 0.00 83 1004.5
20221203024740 50 170 3.5 8.7 0.00 0.00 0.00 82 1004.4
20221203024239 50 174 4.3 8.7 0.00 0.00 0.00 81 1004.3
20221203023738 50 70 6.1 14.8 0.00 0.00 0.00 81 1004.3
20221203023236 50 210 2.6 13.0 0.00 0.00 0.00 80 1004.1
20221203022735 50 266 4.3 7.0 0.00 0.00 0.00 80 1004.0
20221203022235 50 130 2.6 9.6 0.00 0.00 0.00 80 1004.0
20221203021734 50 253 4.3 8.7 0.00 0.00 0.00 80 1004.2
20221203021233 50 190 6.1 8.7 0.00 0.00 0.00 79 1004.1
20221203020731 50 225 6.1 9.6 0.00 0.00 0.00 79 1003.7
20221203020230 50 172 2.6 5.2 0.00 0.00 0.00 79 1004.2
20221203015729 50 199 3.5 8.7 0.00 0.00 0.00 78 1004.0
20221203015228 50 48 1.7 7.8 0.00 0.00 0.00 78 1003.9
20221203014727 50 182 7.8 11.3 0.00 0.00 0.00 77 1004.1
20221203014225 50 175 4.3 8.7 0.00 0.00 0.00 77 1003.9
20221203013725 51 114 3.5 7.8 0.00 0.00 0.00 76 1003.8
20221203013224 51 190 6.1 15.6 0.00 0.00 0.00 76 1003.7
20221203012724 51 182 6.1 12.2 0.00 0.00 0.00 75 1003.6
20221203012223 51 21 6.1 9.6 0.00 0.00 0.00 74 1004.0
20221203011722 51 259 8.7 13.0 0.00 0.00 0.00 74 1003.8
20221203011221 51 311 2.6 7.0 0.00 0.00 0.00 73 1003.9
20221203010721 51 235 2.6 7.8 0.00 0.00 0.00 73 1003.9
20221203010220 51 215 6.1 11.3 0.00 0.00 0.00 72 1004.0
20221203005718 51 156 2.6 8.7 0.00 0.00 0.00 72 1003.7
20221203005218 51 196 7.8 9.6 0.00 0.00 0.00 71 1003.8
20221203004716 51 273 3.5 6.1 0.00 0.00 0.00 71 1004.0
20221203004216 51 63 6.1 9.6 0.00 0.00 0.00 71 1003.8
20221203003716 51 214 5.2 19.1 0.00 0.00 0.00 71 1003.7
20221203003216 51 299 2.6 6.1 0.00 0.00 0.00 71 1003.8
20221203002714 51 194 2.6 9.6 0.00 0.00 0.00 71 1003.6
20221203002213 51 222 2.6 4.3 0.00 0.00 0.00 71 1003.9
20221203001712 51 118 3.5 11.3 0.00 0.00 0.00 70 1003.9
20221203001210 51 224 2.6 6.1 0.00 0.00 0.00 70 1003.6
20221203000710 51 161 2.6 4.3 0.00 0.00 0.00 69 1004.0
20221203000208 50 158 5.2 8.7 0.00 0.00 0.00 68 1003.8
20221202235708 50 355 2.6 7.8 0.00 0.00 0.00 68 1003.5
20221202235207 50 168 2.6 7.0 0.00 0.00 0.00 67 1003.7
20221202234705 50 81 3.5 6.1 0.00 0.00 0.00 66 1003.9
20221202234206 50 178 2.6 11.3 0.00 0.00 0.00 65 1003.9
20221202233705 50 171 5.2 7.8 0.00 0.00 0.00 65 1003.8
20221202233203 50 358 2.6 4.3 0.00 0.00 0.00 65 1003.7
20221202232703 50 218 3.5 6.1 0.00 0.00 0.00 64 1003.6
20221202232202 50 153 2.6 9.6 0.00 0.00 0.00 64 1003.5
20221202231701 50 169 2.6 4.3 0.00 0.00 0.00 64 1003.3
20221202231202 50 97 2.6 13.9 0.00 0.00 0.00 64 1003.4
20221202230700 50 198 2.6 7.8 0.00 0.00 0.00 64 1003.7
20221202230200 50 146 4.3 7.8 0.00 0.00 0.00 63 1003.5
20221202225658 50 131 3.5 7.0 0.00 0.00 0.00 63 1003.7
20221202225158 50 201 4.3 7.0 0.00 0.00 0.00 63 1003.6
20221202224658 50 31 3.5 9.6 0.00 0.00 0.00 63 1003.5
20221202224157 50 82 4.3 7.8 0.00 0.00 0.00 62 1003.5
20221202223657 50 87 3.5 8.7 0.00 0.00 0.00 62 1003.6
20221202223156 50 118 4.3 7.8 0.00 0.00 0.00 62 1003.6
20221202222656 50 173 3.5 6.1 0.00 0.00 0.00 62 1003.4
20221202222154 50 127 4.3 8.7 0.00 0.00 0.00 62 1003.6
20221202221654 50 183 5.2 7.8 0.00 0.00 0.00 61 1003.4
20221202221154 50 149 4.3 7.8 0.00 0.00 0.00 61 1003.5
20221202220653 50 94 7.0 9.6 0.00 0.00 0.00 60 1003.4
20221202220152 50 229 3.5 7.8 0.00 0.00 0.00 60 1003.4
20221202215651 50 168 2.6 11.3 0.00 0.00 0.00 60 1003.3
20221202215151 50 119 4.3 9.6 0.00 0.00 0.00 59 1003.4
20221202214650 50 136 4.3 7.0 0.00 0.00 0.00 59 1003.6
20221202214149 50 201 4.3 8.7 0.00 0.00 0.00 59 1003.5
20221202213648 50 195 2.6 8.7 0.00 0.00 0.00 59 1003.6
20221202213146 50 111 2.6 11.3 0.00 0.00 0.00 58 1003.6
20221202212647 50 151 4.3 7.8 0.00 0.00 0.00 58 1003.4
20221202212146 50 194 5.2 9.6 0.00 0.00 0.00 58 1003.4
20221202211646 50 102 3.5 7.8 0.00 0.00 0.00 58 1003.4
20221202211145 50 93 7.0 13.0 0.00 0.00 0.00 57 1003.6
20221202210644 50 184 6.1 9.6 0.00 0.00 0.00 57 1003.6
20221202210143 50 167 2.6 7.0 0.00 0.00 0.00 57 1003.6
20221202205641 50 189 3.5 5.2 0.00 0.00 0.00 57 1004.0
20221202205140 50 151 2.6 12.2 0.00 0.00 0.00 57 1003.7
20221202204639 51 188 7.0 9.6 0.00 0.00 0.00 56 1003.8
20221202204139 51 176 4.3 12.2 0.00 0.00 0.00 56 1004.0
20221202203637 51 171 2.6 7.0 0.00 0.00 0.00 56 1004.0
20221202203137 50 164 10.4 13.9 0.00 0.00 0.00 56 1004.4
20221202202637 50 181 3.5 7.0 0.00 0.00 0.00 56 1004.4
20221202202136 50 298 5.2 9.6 0.00 0.00 0.00 56 1004.5
20221202201634 50 130 4.3 7.8 0.00 0.00 0.00 56 1004.6
20221202201134 50 149 6.1 11.3 0.00 0.00 0.00 55 1004.7
20221202200633 50 239 4.3 12.2 0.00 0.00 0.00 55 1004.9
20221202200131 51 208 4.3 6.1 0.00 0.00 0.00 54 1005.3
20221202195631 50 188 6.1 9.6 0.00 0.00 0.00 54 1005.4
20221202195131 50 212 5.2 7.8 0.00 0.00 0.00 54 1005.6
20221202194631 49 193 4.3 13.0 0.00 0.00 0.00 56 1005.9
20221202194129 49 147 4.3 8.7 0.00 0.00 0.00 56 1005.8
20221202193628 49 168 7.0 11.3 0.00 0.00 0.00 55 1006.1
20221202193127 48 128 5.2 9.6 0.00 0.00 0.00 56 1006.2
20221202192627 49 209 4.3 13.0 0.00 0.00 0.00 55 1006.3
20221202192126 49 239 2.6 7.8 0.00 0.00 0.00 55 1006.6
20221202191627 49 212 3.5 11.3 0.00 0.00 0.00 55 1006.6
20221202191125 49 173 3.5 8.7 0.00 0.00 0.00 54 1006.8
20221202190625 49 195 2.6 6.1 0.00 0.00 0.00 54 1006.9
20221202190125 48 99 5.2 7.8 0.00 0.00 0.00 55 1007.0
20221202185623 49 207 2.6 9.6 0.00 0.00 0.00 54 1007.3
20221202185122 48 174 4.3 6.1 0.00 0.00 0.00 54 1007.3
20221202184621 48 149 4.3 8.7 0.00 0.00 0.00 56 1007.3
20221202184121 47 107 4.3 7.0 0.00 0.00 0.00 56 1007.2
20221202183619 47 294 7.0 9.6 0.00 0.00 0.00 56 1007.3
20221202183117 47 174 5.2 8.7 0.00 0.00 0.00 56 1007.4
20221202182618 47 84 5.2 9.6 0.00 0.00 0.00 56 1007.5
20221202182118 47 207 4.3 7.0 0.00 0.00 0.00 56 1007.6
20221202181616 47 206 3.5 7.8 0.00 0.00 0.00 56 1007.7
20221202181115 47 145 2.6 9.6 0.00 0.00 0.00 56 1007.6
20221202180614 47 182 6.1 8.7 0.00 0.00 0.00 55 1008.0
20221202180112 47 142 4.3 7.8 0.00 0.00 0.00 54 1008.3
20221202175612 48 150 4.3 13.0 0.00 0.00 0.00 54 1008.5
20221202175111 48 128 2.6 7.8 0.00 0.00 0.00 52 1008.6
20221202174607 48 35 1.7 12.2 0.00 0.00 0.00 52 1008.7
20221202174107 48 117 1.7 7.0 0.00 0.00 0.00 51 1008.9
20221202173606 48 186 5.2 9.6 0.00 0.00 0.00 50 1009.2
20221202173105 48 254 3.5 12.2 0.00 0.00 0.00 51 1008.9
20221202172604 47 140 7.0 8.7 0.00 0.00 0.00 51 1009.1
20221202172102 47 189 7.0 9.6 0.00 0.00 0.00 51 1009.3
20221202171600 47 196 2.6 7.8 0.00 0.00 0.00 52 1009.1
20221202171059 47 320 3.5 7.8 0.00 0.00 0.00 52 1009.5
20221202170558 47 217 6.1 9.6 0.00 0.00 0.00 52 1009.6
20221202170058 46 225 5.2 7.8 0.00 0.00 0.00 52 1010.0
20221202165558 46 168 2.6 9.6 0.00 0.00 0.00 53 1009.9
20221202165057 46 131 7.0 11.3 0.00 0.00 0.00 51 1009.9
20221202164555 45 176 5.2 7.8 0.00 0.00 0.00 52 1010.0
20221202164054 45 107 4.3 7.8 0.00 0.00 0.00 53 1010.1
20221202163552 44 357 4.3 17.4 0.00 0.00 0.00 54 1010.1
20221202163051 44 137 6.1 12.2 0.00 0.00 0.00 54 1010.4
20221202162550 44 127 4.3 7.8 0.00 0.00 0.00 54 1010.6
20221202162048 43 226 3.5 11.3 0.00 0.00 0.00 55 1011.1
20221202161548 43 87 5.2 13.9 0.00 0.00 0.00 55 1011.0
20221202161046 43 160 2.6 8.7 0.00 0.00 0.00 55 1011.1
20221202160546 43 226 2.6 7.0 0.00 0.00 0.00 55 1011.1
20221202160046 42 141 3.5 6.1 0.00 0.00 0.00 55 1011.4
20221202155545 42 171 6.1 7.8 0.00 0.00 0.00 56 1011.5
20221202155044 42 135 1.7 6.1 0.00 0.00 0.00 56 1011.2
20221202154544 42 140 3.5 9.6 0.00 0.00 0.00 56 1011.7
20221202154042 41 170 5.2 8.7 0.00 0.00 0.00 56 1011.7
20221202153542 41 204 4.3 11.3 0.00 0.00 0.00 56 1011.6
20221202153042 41 199 2.6 8.7 0.00 0.00 0.00 57 1011.7
20221202152540 41 177 7.0 8.7 0.00 0.00 0.00 57 1011.9
20221202152038 41 121 7.0 9.6 0.00 0.00 0.00 57 1012.1
20221202151537 41 238 2.6 12.2 0.00 0.00 0.00 58 1012.1
20221202151036 41 173 5.2 7.0 0.00 0.00 0.00 59 1012.1
20221202150535 40 215 1.7 7.8 0.00 0.00 0.00 59 1011.9
20221202150033 40 154 7.8 11.3 0.00 0.00 0.00 60 1012.1
20221202145532 40 136 2.6 12.2 0.00 0.00 0.00 61 1012.3
20221202145030 40 122 1.7 8.7 0.00 0.00 0.00 61 1012.2
20221202144529 40 64 5.2 7.8 0.00 0.00 0.00 61 1012.3
20221202144029 40 141 4.3 8.7 0.00 0.00 0.00 61 1012.3
20221202143527 39 194 2.6 5.2 0.00 0.00 0.00 61 1012.4
20221202143027 39 81 1.7 2.6 0.00 0.00 0.00 62 1012.5
20221202142525 39 107 1.7 6.1 0.00 0.00 0.00 61 1012.6
20221202142024 39 185 1.7 7.0 0.00 0.00 0.00 62 1012.6
20221202141523 39 87 2.6 6.1 0.00 0.00 0.00 62 1012.6
20221202141022 38 128 5.2 7.0 0.00 0.00 0.00 62 1012.6
20221202140521 38 218 2.6 6.1 0.00 0.00 0.00 62 1012.7
20221202140020 38 97 2.6 7.0 0.00 0.00 0.00 63 1012.8
20221202135518 38 123 1.7 5.2 0.00 0.00 0.00 64 1013.0
20221202135017 38 181 3.5 5.2 0.00 0.00 0.00 64 1013.0
20221202134515 38 120 3.5 6.1 0.00 0.00 0.00 64 1013.3
20221202134014 38 154 4.3 7.0 0.00 0.00 0.00 63 1013.2
20221202133514 38 174 2.6 6.1 0.00 0.00 0.00 64 1013.3
20221202133014 37 178 5.2 7.8 0.00 0.00 0.00 64 1013.1
20221202132514 37 35 2.6 6.1 0.00 0.00 0.00 62 1013.2
20221202132012 37 173 2.6 6.1 0.00 0.00 0.00 62 1013.6
20221202131510 37 156 6.1 7.0 0.00 0.00 0.00 62 1013.7
20221202131009 37 126 3.5 7.0 0.00 0.00 0.00 62 1013.7
20221202130508 37 159 2.6 5.2 0.00 0.00 0.00 62 1013.6
20221202130007 37 159 1.7 7.0 0.00 0.00 0.00 62 1013.9
20221202125506 37 155 2.6 7.0 0.00 0.00 0.00 61 1014.0
20221202125005 37 224 4.3 7.8 0.00 0.00 0.00 61 1014.1
20221202124504 37 101 2.6 4.3 0.00 0.00 0.00 61 1014.1
20221202124004 37 125 4.3 7.8 0.00 0.00 0.00 60 1014.2
20221202123504 37 188 2.6 7.0 0.00 0.00 0.00 60 1014.3
20221202123003 37 96 1.7 6.1 0.00 0.00 0.00 60 1014.5
20221202122502 38 173 0.9 6.1 0.00 0.00 0.00 60 1014.5
20221202122002 38 108 2.6 8.7 0.00 0.00 0.00 60 1014.7
20221202121500 38 201 4.3 5.2 0.00 0.00 0.00 60 1014.6
20221202120958 38 108 3.5 5.2 0.00 0.00 0.00 60 1014.7
20221202120457 38 155 5.2 7.0 0.00 0.00 0.00 59 1014.7
20221202115956 38 155 4.3 7.8 0.00 0.00 0.00 59 1014.9
20221202115454 38 182 3.5 8.7 0.00 0.00 0.00 59 1015.2
20221202114952 38 132 3.5 5.2 0.00 0.00 0.00 59 1015.1
20221202114452 38 113 5.2 7.8 0.00 0.00 0.00 58 1015.0
20221202113951 38 136 5.2 7.8 0.00 0.00 0.00 58 1014.8
20221202113449 38 145 1.7 6.1 0.00 0.00 0.00 58 1015.0
20221202112948 38 138 0.9 6.1 0.00 0.00 0.00 58 1015.3
20221202112448 38 133 4.3 6.1 0.00 0.00 0.00 58 1015.2
20221202111947 38 170 2.6 5.2 0.00 0.00 0.00 58 1015.1
20221202111447 38 141 0.9 5.2 0.00 0.00 0.00 58 1015.3
20221202110945 38 191 3.5 7.8 0.00 0.00 0.00 58 1015.4
20221202110442 37 99 2.6 8.7 0.00 0.00 0.00 58 1015.4
20221202105941 37 210 5.2 12.2 0.00 0.00 0.00 57 1015.4
20221202105438 37 85 1.7 6.1 0.00 0.00 0.00 58 1015.4
20221202104937 37 149 4.3 7.8 0.00 0.00 0.00 57 1015.3
20221202104437 37 105 3.5 5.2 0.00 0.00 0.00 58 1015.5
20221202103937 37 126 0.9 5.2 0.00 0.00 0.00 58 1015.4
20221202103435 37 175 3.5 7.8 0.00 0.00 0.00 58 1015.2
20221202102934 37 134 5.2 9.6 0.00 0.00 0.00 58 1015.3
20221202102434 37 1 4.3 7.0 0.00 0.00 0.00 58 1015.7
20221202101932 37 142 1.7 7.0 0.00 0.00 0.00 58 1016.0
20221202101430 37 154 3.5 5.2 0.00 0.00 0.00 59 1015.7
20221202100931 37 96 2.6 5.2 0.00 0.00 0.00 59 1015.9
20221202100429 37 199 2.6 7.8 0.00 0.00 0.00 59 1016.0
20221202095929 37 218 4.3 7.8 0.00 0.00 0.00 59 1016.1
20221202095428 37 141 2.6 7.0 0.00 0.00 0.00 59 1016.0
20221202094927 37 125 4.3 6.1 0.00 0.00 0.00 59 1016.1
20221202094426 37 182 3.5 7.0 0.00 0.00 0.00 59 1016.3
20221202093924 37 140 1.7 2.6 0.00 0.00 0.00 59 1016.3
20221202093422 37 73 1.7 11.3 0.00 0.00 0.00 59 1016.4
20221202092920 37 190 1.7 8.7 0.00 0.00 0.00 59 1016.5
20221202092419 36 105 2.6 6.1 0.00 0.00 0.00 60 1016.6
20221202091919 36 163 4.3 6.1 0.00 0.00 0.00 59 1016.4
20221202091419 36 129 1.7 2.6 0.00 0.00 0.00 60 1016.7
20221202090918 36 187 2.6 7.0 0.00 0.00 0.00 60 1016.6
20221202090418 36 154 0.9 4.3 0.00 0.00 0.00 60 1016.8
20221202085917 36 115 2.6 4.3 0.00 0.00 0.00 60 1017.0
20221202085416 36 205 2.6 6.1 0.00 0.00 0.00 60 1017.0
20221202084916 36 100 1.7 7.0 0.00 0.00 0.00 60 1017.3
20221202084414 36 142 4.3 6.1 0.00 0.00 0.00 60 1017.3
20221202083913 36 93 2.6 5.2 0.00 0.00 0.00 60 1017.4
20221202083411 36 197 1.7 5.2 0.00 0.00 0.00 60 1017.7
20221202082910 36 100 0.9 7.0 0.00 0.00 0.00 60 1017.6
20221202082410 36 100 1.7 4.3 0.00 0.00 0.00 60 1017.7
20221202081909 36 225 4.3 7.8 0.00 0.00 0.00 60 1017.8
20221202081408 36 93 2.6 4.3 0.00 0.00 0.00 60 1017.6
20221202080905 36 106 0.9 7.8 0.00 0.00 0.00 60 1017.9
20221202080406 36 135 1.7 5.2 0.00 0.00 0.00 60 1018.0
20221202075904 36 188 2.6 7.0 0.00 0.00 0.00 60 1018.1
20221202075403 36 237 3.5 7.0 0.00 0.00 0.00 60 1018.2
20221202074901 36 119 2.6 4.3 0.00 0.00 0.00 61 1017.9
20221202074359 36 140 2.6 4.3 0.00 0.00 0.00 60 1018.2
20221202073858 36 121 3.5 9.6 0.00 0.00 0.00 60 1018.0
20221202073358 35 169 2.6 6.1 0.00 0.00 0.00 61 1018.1
20221202072858 35 100 4.3 6.1 0.00 0.00 0.00 60 1018.2
20221202072358 35 245 3.5 5.2 0.00 0.00 0.00 60 1018.4
20221202071857 35 86 5.2 7.0 0.00 0.00 0.00 60 1018.5
20221202071356 35 185 4.3 6.1 0.00 0.00 0.00 60 1018.5
20221202070854 35 222 5.2 7.0 0.00 0.00 0.00 60 1018.7
20221202070351 35 143 0.9 6.1 0.00 0.00 0.00 60 1018.7
20221202065849 35 182 4.3 7.8 0.00 0.00 0.00 60 1018.6
20221202065348 35 164 4.3 7.0 0.00 0.00 0.00 60 1018.6
20221202064847 35 125 4.3 7.8 0.00 0.00 0.00 60 1018.5